Zurück zum Katalog

METEOR 2-5 DEB

AktivPO
NORAD 36911·DEBRIS·🇷🇺 Russia

Gestartet Oct 31, 1979 von Plesetsk Cosmodrome

Loading…

Nächste Überflüge (nächste 24 Stunden)

TLE

AlterndSource: Space-Track

Epoche: Sep 10, 2026, 02:22 UTC

1 36911U 79095BC  26253.09908260  .00004685  00000-0  14472-2 0  9995
2 36911  81.1757  23.1278 0021891 141.0506 219.2264 14.41086584682993

Verfolge METEOR 2-5 DEB in Echtzeit mit AllMySat

Download on the App Store